Time,TemperatureF,DewpointF,PressureIn,WindDirection,WindDirectionDegrees,WindSpeedMPH,WindSpeedGustMPH,Humidity,HourlyPrecipIn,Conditions,Clouds,dailyrainin,SoftwareType,DateUTC
2014-12-19 00:01:00,27.5,24.7,30.33,East,79,0.0,0.0,89,0.00,,---,0.00,VWS V15.00,2014-12-19 05:01:00,
2014-12-19 00:10:00,27.5,24.7,30.33,East,79,0.0,0.0,89,0.00,,---,0.00,VWS V15.00,2014-12-19 05:10:00,
2014-12-19 00:20:00,27.5,24.7,30.33,East,79,0.0,0.0,89,0.00,,---,0.00,VWS V15.00,2014-12-19 05:20:00,
2014-12-19 00:30:00,27.6,24.8,30.33,East,79,0.0,0.0,89,0.00,,---,0.00,VWS V15.00,2014-12-19 05:30:00,
2014-12-19 00:40:00,27.6,24.8,30.33,East,79,0.0,1.0,89,0.00,,---,0.00,VWS V15.00,2014-12-19 05:40:00,
2014-12-19 00:50:00,27.7,24.9,30.33,East,79,0.0,0.0,89,0.00,,---,0.00,VWS V15.00,2014-12-19 05:50:00,
2014-12-19 01:00:00,27.7,24.9,30.33,East,79,0.0,0.0,89,0.00,,---,0.00,VWS V15.00,2014-12-19 06:00:00,
2014-12-19 01:10:00,27.7,24.9,30.33,East,79,0.0,0.0,89,0.00,,---,0.00,VWS V15.00,2014-12-19 06:10:00,
2014-12-19 01:20:00,27.7,24.6,30.33,East,79,0.0,0.0,88,0.00,,---,0.00,VWS V15.00,2014-12-19 06:20:00,
2014-12-19 01:30:00,27.7,24.9,30.32,East,79,0.0,0.0,89,0.00,,---,0.00,VWS V15.00,2014-12-19 06:30:00,
2014-12-19 01:40:00,27.5,24.4,30.32,East,79,0.0,0.0,88,0.00,,---,0.00,VWS V15.00,2014-12-19 06:40:00,
2014-12-19 01:50:00,27.2,24.1,30.32,East,79,0.0,0.0,88,0.00,,---,0.00,VWS V15.00,2014-12-19 06:50:00,
2014-12-19 02:00:00,27.0,23.9,30.32,East,79,0.0,0.0,88,0.00,,---,0.00,VWS V15.00,2014-12-19 07:00:00,
2014-12-19 02:10:00,26.8,23.7,30.32,East,79,0.0,0.0,88,0.00,,---,0.00,VWS V15.00,2014-12-19 07:10:00,
2014-12-19 02:20:00,26.4,23.3,30.32,East,79,0.0,0.0,88,0.00,,---,0.00,VWS V15.00,2014-12-19 07:20:00,
2014-12-19 02:30:00,26.2,23.4,30.33,East,79,0.0,0.0,89,0.00,,---,0.00,VWS V15.00,2014-12-19 07:30:00,
2014-12-19 02:40:00,26.0,23.2,30.33,East,79,0.0,0.0,89,0.00,,---,0.00,VWS V15.00,2014-12-19 07:40:00,
2014-12-19 02:50:00,25.9,23.4,30.33,East,79,0.0,0.0,90,0.00,,---,0.00,VWS V15.00,2014-12-19 07:50:00,
2014-12-19 03:00:00,25.7,22.9,30.33,East,79,0.0,0.0,89,0.00,,---,0.00,VWS V15.00,2014-12-19 08:00:00,
2014-12-19 03:10:00,25.5,23.0,30.33,East,79,0.0,0.0,90,0.00,,---,0.00,VWS V15.00,2014-12-19 08:10:00,
2014-12-19 03:20:00,25.4,23.1,30.33,East,79,0.0,0.0,91,0.00,,---,0.00,VWS V15.00,2014-12-19 08:20:00,
2014-12-19 03:30:00,25.3,23.0,30.33,East,79,0.0,0.0,91,0.00,,---,0.00,VWS V15.00,2014-12-19 08:30:00,
2014-12-19 03:40:00,25.4,23.4,30.32,East,79,0.0,0.0,92,0.00,,---,0.00,VWS V15.00,2014-12-19 08:40:00,
2014-12-19 03:50:00,25.4,23.4,30.33,East,79,0.0,0.0,92,0.00,,---,0.00,VWS V15.00,2014-12-19 08:50:00,
2014-12-19 04:00:00,25.7,23.7,30.33,East,79,0.0,1.0,92,0.00,,---,0.00,VWS V15.00,2014-12-19 09:00:00,
2014-12-19 04:10:00,25.9,23.9,30.33,East,79,0.0,1.0,92,0.00,,---,0.00,VWS V15.00,2014-12-19 09:10:00,
2014-12-19 04:20:00,26.0,24.0,30.32,East,79,0.0,1.0,92,0.00,,---,0.00,VWS V15.00,2014-12-19 09:20:00,
2014-12-19 04:30:00,26.2,24.2,30.33,East,79,0.0,1.0,92,0.00,,---,0.00,VWS V15.00,2014-12-19 09:30:00,
2014-12-19 04:40:00,26.4,24.1,30.32,East,79,0.0,0.0,91,0.00,,---,0.00,VWS V15.00,2014-12-19 09:40:00,
2014-12-19 04:50:00,26.5,24.5,30.33,East,79,0.0,1.0,92,0.00,,---,0.00,VWS V15.00,2014-12-19 09:50:00,
2014-12-19 05:00:00,26.7,24.7,30.33,East,79,0.0,0.0,92,0.00,,---,0.00,VWS V15.00,2014-12-19 10:00:00,
2014-12-19 05:10:00,26.7,24.4,30.33,East,79,0.0,0.0,91,0.00,,---,0.00,VWS V15.00,2014-12-19 10:10:00,
2014-12-19 05:20:00,26.7,24.4,30.33,East,79,0.0,0.0,91,0.00,,---,0.00,VWS V15.00,2014-12-19 10:20:00,
2014-12-19 05:30:00,26.8,24.5,30.33,East,79,0.0,0.0,91,0.00,,---,0.00,VWS V15.00,2014-12-19 10:30:00,
2014-12-19 05:40:00,26.9,24.4,30.34,East,79,0.0,0.0,90,0.00,,---,0.00,VWS V15.00,2014-12-19 10:40:00,
2014-12-19 05:50:00,27.1,24.6,30.34,East,79,0.0,0.0,90,0.00,,---,0.00,VWS V15.00,2014-12-19 10:50:00,
2014-12-19 06:00:00,27.3,25.0,30.34,East,79,0.0,0.0,91,0.00,,---,0.00,VWS V15.00,2014-12-19 11:00:00,
2014-12-19 06:10:00,27.3,25.0,30.34,East,79,0.0,0.0,91,0.00,,---,0.00,VWS V15.00,2014-12-19 11:10:00,
2014-12-19 06:20:00,27.4,24.9,30.34,East,79,0.0,1.0,90,0.00,,---,0.00,VWS V15.00,2014-12-19 11:20:00,
2014-12-19 06:30:00,27.3,24.5,30.35,East,79,0.0,0.0,89,0.00,,---,0.00,VWS V15.00,2014-12-19 11:30:00,
2014-12-19 06:40:00,27.3,24.0,30.35,East,79,0.0,1.0,87,0.00,,---,0.00,VWS V15.00,2014-12-19 11:40:00,
2014-12-19 06:50:00,27.4,23.8,30.35,East,79,0.0,1.0,86,0.00,,---,0.00,VWS V15.00,2014-12-19 11:50:00,
2014-12-19 07:00:00,27.4,23.8,30.35,East,79,0.0,0.0,86,0.00,,---,0.00,VWS V15.00,2014-12-19 12:00:00,
2014-12-19 07:10:00,27.4,23.5,30.35,East,79,0.0,1.0,85,0.00,,---,0.00,VWS V15.00,2014-12-19 12:10:00,
2014-12-19 07:20:00,27.4,23.5,30.35,East,79,0.0,1.0,85,0.00,,---,0.00,VWS V15.00,2014-12-19 12:20:00,
2014-12-19 07:30:00,27.3,23.1,30.35,East,79,0.0,1.0,84,0.00,,---,0.00,VWS V15.00,2014-12-19 12:30:00,
2014-12-19 07:40:00,27.3,23.1,30.35,East,79,0.0,1.0,84,0.00,,---,0.00,VWS V15.00,2014-12-19 12:40:00,
2014-12-19 07:50:00,27.2,22.7,30.35,East,79,0.0,1.0,83,0.00,,---,0.00,VWS V15.00,2014-12-19 12:50:00,
2014-12-19 08:00:00,27.2,22.7,30.35,East,79,0.0,0.0,83,0.00,,---,0.00,VWS V15.00,2014-12-19 13:00:00,
2014-12-19 08:10:00,27.2,22.7,30.36,East,79,0.0,1.0,83,0.00,,---,0.00,VWS V15.00,2014-12-19 13:10:00,
2014-12-19 08:20:00,27.3,22.8,30.36,East,79,0.0,1.0,83,0.00,,---,0.00,VWS V15.00,2014-12-19 13:20:00,
2014-12-19 08:30:00,27.4,23.2,30.37,East,79,0.0,1.0,84,0.00,,---,0.00,VWS V15.00,2014-12-19 13:30:00,
2014-12-19 08:40:00,27.5,23.0,30.37,WSW,244,1.0,2.0,83,0.00,,---,0.00,VWS V15.00,2014-12-19 13:40:00,
2014-12-19 08:50:00,27.5,23.0,30.37,NNE,24,0.0,3.0,83,0.00,,---,0.00,VWS V15.00,2014-12-19 13:50:00,
2014-12-19 09:00:00,27.6,23.1,30.38,NNE,24,0.0,2.0,83,0.00,,---,0.00,VWS V15.00,2014-12-19 14:00:00,
2014-12-19 09:10:00,27.7,22.9,30.39,NW,319,0.0,1.0,82,0.00,,---,0.00,VWS V15.00,2014-12-19 14:10:00,
2014-12-19 09:20:00,27.8,22.7,30.39,ENE,70,0.0,2.0,81,0.00,,---,0.00,VWS V15.00,2014-12-19 14:20:00,
2014-12-19 09:30:00,27.6,22.2,30.39,West,272,0.0,6.0,80,0.00,,---,0.00,VWS V15.00,2014-12-19 14:30:00,
2014-12-19 09:40:00,27.6,22.2,30.39,West,272,0.0,1.0,80,0.00,,---,0.00,VWS V15.00,2014-12-19 14:40:00,
2014-12-19 09:50:00,27.9,22.5,30.38,NW,311,1.0,2.0,80,0.00,,---,0.00,VWS V15.00,2014-12-19 14:50:00,
2014-12-19 10:00:00,28.1,22.4,30.38,NNE,17,0.0,3.0,79,0.00,,---,0.00,VWS V15.00,2014-12-19 15:00:00,
2014-12-19 10:10:00,28.2,22.5,30.38,ENE,76,1.0,2.0,79,0.00,,---,0.00,VWS V15.00,2014-12-19 15:10:00,
2014-12-19 10:20:00,28.5,22.8,30.38,East,92,0.0,3.0,79,0.00,,---,0.00,VWS V15.00,2014-12-19 15:20:00,
2014-12-19 10:30:00,28.6,23.2,30.38,NNE,22,0.0,3.0,80,0.00,,---,0.00,VWS V15.00,2014-12-19 15:30:00,
2014-12-19 10:40:00,28.9,22.9,30.38,North,5,0.0,3.0,78,0.00,,---,0.00,VWS V15.00,2014-12-19 15:40:00,
2014-12-19 10:50:00,29.0,23.0,30.38,NNE,17,0.0,3.0,78,0.00,,---,0.00,VWS V15.00,2014-12-19 15:50:00,
2014-12-19 11:00:00,29.0,23.0,30.39,SSE,149,3.0,5.0,78,0.00,,---,0.00,VWS V15.00,2014-12-19 16:00:00,
2014-12-19 11:10:00,29.1,23.4,30.39,NE,41,2.0,3.0,79,0.00,,---,0.00,VWS V15.00,2014-12-19 16:10:00,
2014-12-19 11:20:00,29.2,23.2,30.39,ENE,59,0.0,3.0,78,0.00,,---,0.00,VWS V15.00,2014-12-19 16:20:00,
2014-12-19 11:30:00,29.1,23.1,30.38,WNW,286,1.0,3.0,78,0.00,,---,0.00,VWS V15.00,2014-12-19 16:30:00,
2014-12-19 11:40:00,29.2,23.2,30.37,North,355,0.0,2.0,78,0.00,,---,0.00,VWS V15.00,2014-12-19 16:40:00,
2014-12-19 11:50:00,29.3,23.6,30.37,NE,39,0.0,4.0,79,0.00,,---,0.00,VWS V15.00,2014-12-19 16:50:00,
2014-12-19 12:00:00,29.3,23.6,30.36,ESE,102,1.0,3.0,79,0.00,,---,0.00,VWS V15.00,2014-12-19 17:00:00,
2014-12-19 12:10:00,29.4,24.0,30.36,East,100,0.0,3.0,80,0.00,,---,0.00,VWS V15.00,2014-12-19 17:10:00,
2014-12-19 12:20:00,29.8,24.1,30.36,SE,127,0.0,3.0,79,0.00,,---,0.00,VWS V15.00,2014-12-19 17:20:00,
2014-12-19 12:30:00,29.9,23.9,30.37,SE,138,0.0,4.0,78,0.00,,---,0.00,VWS V15.00,2014-12-19 17:30:00,
2014-12-19 12:40:00,29.8,23.8,30.36,East,84,0.0,3.0,78,0.00,,---,0.00,VWS V15.00,2014-12-19 17:40:00,
2014-12-19 12:50:00,30.0,24.3,30.35,ESE,114,4.0,4.0,79,0.00,,---,0.00,VWS V15.00,2014-12-19 17:50:00,
2014-12-19 13:00:00,30.1,24.4,30.35,SE,141,1.0,4.0,79,0.00,,---,0.00,VWS V15.00,2014-12-19 18:00:00,
2014-12-19 13:10:00,30.2,24.5,30.35,SE,133,3.0,3.0,79,0.00,,---,0.00,VWS V15.00,2014-12-19 18:10:00,
2014-12-19 13:20:00,30.5,24.5,30.35,SSE,155,0.0,4.0,78,0.00,,---,0.00,VWS V15.00,2014-12-19 18:20:00,
2014-12-19 13:30:00,30.8,24.8,30.34,NE,49,2.0,5.0,78,0.00,,---,0.00,VWS V15.00,2014-12-19 18:30:00,
2014-12-19 13:40:00,30.6,24.0,30.34,SE,141,3.0,6.0,76,0.00,,---,0.00,VWS V15.00,2014-12-19 18:40:00,
2014-12-19 13:50:00,30.6,24.6,30.35,ESE,119,2.0,5.0,78,0.00,,---,0.00,VWS V15.00,2014-12-19 18:50:00,
2014-12-19 14:00:00,30.8,24.5,30.34,SE,134,0.0,4.0,77,0.00,,---,0.00,VWS V15.00,2014-12-19 19:00:00,
2014-12-19 14:10:00,30.8,24.1,30.34,East,81,0.0,3.0,76,0.00,,---,0.00,VWS V15.00,2014-12-19 19:10:00,
2014-12-19 14:20:00,30.8,24.1,30.34,ENE,74,0.0,3.0,76,0.00,,---,0.00,VWS V15.00,2014-12-19 19:20:00,
2014-12-19 14:30:00,30.8,24.1,30.35,SE,141,3.0,6.0,76,0.00,,---,0.00,VWS V15.00,2014-12-19 19:30:00,
2014-12-19 14:40:00,30.8,24.5,30.35,ESE,121,0.0,4.0,77,0.00,,---,0.00,VWS V15.00,2014-12-19 19:40:00,
2014-12-19 14:50:00,30.8,23.8,30.34,SE,144,1.0,3.0,75,0.00,,---,0.00,VWS V15.00,2014-12-19 19:50:00,
2014-12-19 15:00:00,30.7,23.7,30.34,SSE,151,1.0,5.0,75,0.00,,---,0.00,VWS V15.00,2014-12-19 20:00:00,
2014-12-19 15:10:00,30.8,24.1,30.34,SE,134,0.0,2.0,76,0.00,,---,0.00,VWS V15.00,2014-12-19 20:10:00,
2014-12-19 15:20:00,30.9,24.5,30.33,SE,132,1.0,2.0,77,0.00,,---,0.00,VWS V15.00,2014-12-19 20:20:00,
2014-12-19 15:30:00,30.8,24.1,30.33,ENE,69,0.0,3.0,76,0.00,,---,0.00,VWS V15.00,2014-12-19 20:30:00,
2014-12-19 15:40:00,30.8,23.8,30.34,SE,125,0.0,4.0,75,0.00,,---,0.00,VWS V15.00,2014-12-19 20:40:00,
2014-12-19 15:50:00,30.8,23.8,30.34,SE,125,0.0,1.0,75,0.00,,---,0.00,VWS V15.00,2014-12-19 20:50:00,
2014-12-19 16:00:00,30.8,23.8,30.34,SE,125,0.0,1.0,75,0.00,,---,0.00,VWS V15.00,2014-12-19 21:00:00,
2014-12-19 16:10:00,30.8,23.8,30.36,SE,125,0.0,0.0,75,0.00,,---,0.00,VWS V15.00,2014-12-19 21:10:00,
2014-12-19 16:20:00,30.8,23.8,30.36,SE,125,0.0,1.0,75,0.00,,---,0.00,VWS V15.00,2014-12-19 21:20:00,
2014-12-19 16:30:00,30.8,24.5,30.36,SE,125,1.0,1.0,77,0.00,,---,0.00,VWS V15.00,2014-12-19 21:30:00,
2014-12-19 16:40:00,30.8,23.8,30.37,SE,134,0.0,3.0,75,0.00,,---,0.00,VWS V15.00,2014-12-19 21:40:00,
2014-12-19 16:50:00,30.8,24.1,30.38,SE,135,0.0,1.0,76,0.00,,---,0.00,VWS V15.00,2014-12-19 21:50:00,
2014-12-19 17:00:00,30.8,24.1,30.38,West,273,0.0,3.0,76,0.00,,---,0.00,VWS V15.00,2014-12-19 22:00:00,
2014-12-19 17:10:00,30.8,24.5,30.38,West,273,0.0,0.0,77,0.00,,---,0.00,VWS V15.00,2014-12-19 22:10:00,
2014-12-19 17:20:00,30.8,24.5,30.39,West,273,1.0,1.0,77,0.00,,---,0.00,VWS V15.00,2014-12-19 22:20:00,
2014-12-19 17:30:00,30.8,24.1,30.39,West,273,0.0,2.0,76,0.00,,---,0.00,VWS V15.00,2014-12-19 22:30:00,
2014-12-19 17:40:00,30.7,24.4,30.39,West,273,0.0,1.0,77,0.00,,---,0.00,VWS V15.00,2014-12-19 22:40:00,
2014-12-19 17:50:00,30.7,24.4,30.39,West,273,0.0,0.0,77,0.00,,---,0.00,VWS V15.00,2014-12-19 22:50:00,
2014-12-19 18:00:00,30.6,24.0,30.39,West,273,0.0,1.0,76,0.00,,---,0.00,VWS V15.00,2014-12-19 23:00:00,
2014-12-19 18:10:00,30.5,24.2,30.39,West,273,0.0,2.0,77,0.00,,---,0.00,VWS V15.00,2014-12-19 23:10:00,
2014-12-19 18:21:00,30.4,24.1,30.38,West,273,0.0,0.0,77,0.00,,---,0.00,VWS V15.00,2014-12-19 23:21:00,
2014-12-19 18:30:00,30.2,24.5,30.38,West,273,0.0,1.0,79,0.00,,---,0.00,VWS V15.00,2014-12-19 23:30:00,
2014-12-19 18:40:00,30.1,24.7,30.38,West,273,0.0,1.0,80,0.00,,---,0.00,VWS V15.00,2014-12-19 23:40:00,
2014-12-19 18:50:00,30.0,24.9,30.37,West,273,0.0,1.0,81,0.00,,---,0.00,VWS V15.00,2014-12-19 23:50:00,
2014-12-19 19:00:00,29.9,25.1,30.38,West,273,0.0,0.0,82,0.00,,---,0.00,VWS V15.00,2014-12-20 00:00:00,
2014-12-19 19:10:00,29.9,24.8,30.37,West,273,0.0,0.0,81,0.00,,---,0.00,VWS V15.00,2014-12-20 00:10:00,
2014-12-19 19:20:00,29.8,25.0,30.38,West,273,0.0,0.0,82,0.00,,---,0.00,VWS V15.00,2014-12-20 00:20:00,
2014-12-19 19:30:00,29.9,24.5,30.38,West,273,0.0,0.0,80,0.00,,---,0.00,VWS V15.00,2014-12-20 00:30:00,
2014-12-19 19:40:00,29.9,25.1,30.38,West,273,0.0,1.0,82,0.00,,---,0.00,VWS V15.00,2014-12-20 00:40:00,
2014-12-19 19:50:00,29.9,25.4,30.38,West,273,0.0,1.0,83,0.00,,---,0.00,VWS V15.00,2014-12-20 00:50:00,
2014-12-19 20:01:00,30.0,25.5,30.38,West,273,0.0,0.0,83,0.00,,---,0.00,VWS V15.00,2014-12-20 01:01:00,
2014-12-19 20:11:00,29.9,25.4,30.38,West,273,0.0,0.0,83,0.00,,---,0.00,VWS V15.00,2014-12-20 01:11:00,
2014-12-19 20:21:00,30.0,25.5,30.38,West,273,0.0,0.0,83,0.00,,---,0.00,VWS V15.00,2014-12-20 01:21:00,
2014-12-19 20:31:00,30.0,25.5,30.38,West,273,0.0,0.0,83,0.00,,---,0.00,VWS V15.00,2014-12-20 01:31:00,
2014-12-19 20:41:00,30.0,25.5,30.38,West,273,0.0,1.0,83,0.00,,---,0.00,VWS V15.00,2014-12-20 01:41:00,
2014-12-19 20:51:00,30.0,25.2,30.38,West,273,0.0,1.0,82,0.00,,---,0.00,VWS V15.00,2014-12-20 01:51:00,
2014-12-19 21:01:00,30.2,25.7,30.38,West,273,0.0,0.0,83,0.00,,---,0.00,VWS V15.00,2014-12-20 02:01:00,
2014-12-19 21:11:00,30.3,26.1,30.37,West,273,0.0,0.0,84,0.00,,---,0.00,VWS V15.00,2014-12-20 02:11:00,
2014-12-19 21:21:00,30.3,25.8,30.37,West,273,0.0,1.0,83,0.00,,---,0.00,VWS V15.00,2014-12-20 02:21:00,
2014-12-19 21:31:00,30.2,26.0,30.36,West,273,0.0,1.0,84,0.00,,---,0.00,VWS V15.00,2014-12-20 02:31:00,